Location: Waco, TX
(31.5480°N, 97.1670°W)
Time: 00:36:23
(UTC-06:00)

ISS - Pass Details

Date: 10 December 2017
Orbit: 403 x 407 km, 51.6° (Epoch: 12 December)

Event Time Altitude Azimuth Distance (km) Brightness Sun altitude
Rises 19:49:32 0° 330° (NNW) 2,324 - -29.8°
Reaches altitude 10° 19:52:05 10° 350° (N) 1,461 - -30.4°
Maximum altitude 19:54:25 18° 36° (NE) 1,073 - -30.8°
Drops below altitude 10° 19:56:45 10° 82° (E) 1,455 - -31.3°
Sets 19:59:16 0° 102° (ESE) 2,310 - -31.9°
